[[{"header":{"parameterUnit":"m.s-1","parameterCategory":1,"la1":30.2991,"la2":30.254,"lo1":-89.0895,"lo2":-89.0444,"dy":0.0017,"dx":0.0017,"nx":28,"ny":28,"refTime":"2023-03-30T21:00:00:Z","depth":0,"parameterNumber":2,"parameterNumberName":"U-component_of_WINDS"},"data":[0,0,0,0,0,0,0,0,0,0,0,0,0,0,0,0,0,0,0,0,0,0,0,0,0,0,0,0,0,0,0,0,0,0,0,0,0,0,0,0,0,0,0,0,0,0,0,0,0,0,0,0,0,0,0,0,0,0,-1.7709,-1.7709,0,-1.7739,-1.7739,-1.774,-1.7732,-1.7731,-1.7731,-1.773,-1.7759,-1.776,-1.7761,0,0,0,0,0,0,0,0,0,0,0,0,0,-1.7641,-1.7643,-1.7709,-1.7709,-1.7709,-1.7739,-1.7739,-1.774,-1.7732,-1.7731,-1.7731,-1.773,-1.7758,-1.776,-1.7762,0,0,0,0,0,0,0,0,0,0,0,0,0,-1.7671,-1.7643,-1.7709,-1.7709,-1.771,-1.7739,-1.7739,-1.774,-1.7732,-1.7731,-1.773,-1.773,-1.7758,-1.776,-1.7762,-1.7792,0,0,-1.7768,-1.7769,0,0,0,0,0,0,0,0,-1.7669,-1.7674,-1.7709,-1.7709,-1.771,-1.7731,-1.7726,-1.7757,-1.7732,-1.7723,-1.773,-1.7729,-1.775,-1.7753,-1.776,-1.7793,-1.7794,-1.7768,-1.7769,-1.777,-1.7771,0,0,0,0,0,0,0,-1.7667,-1.7672,-1.7721,-1.7709,-1.771,-1.7707,-1.771,-1.7732,-1.7741,-1.7724,-1.7724,-1.7728,-1.775,-1.7758,-1.7761,-1.7795,-1.7768,-1.777,-1.7771,-1.7772,-1.7852,-1.7853,0,0,0,0,0,0,-1.7665,-1.7671,-1.772,-1.7722,-1.7687,-1.7709,-1.7713,-1.7725,-1.7741,-1.7743,-1.7728,-1.7727,-1.7755,-1.7759,-1.7762,-1.7797,-1.777,-1.7772,-1.7773,-1.7851,-1.7853,-1.7854,0,0,0,0,0,0,-1.7664,-1.767,-1.7718,-1.7696,-1.7702,-1.7711,-1.7725,-1.7726,-1.7734,-1.7744,-1.7746,-1.7735,-1.7755,-1.7759,-1.7784,-1.7798,-1.7773,-1.7775,-1.785,-1.7852,-1.7853,-1.7868,0,0,0,0,0,0,-1.7662,-1.7669,-1.7681,-1.7696,-1.7703,-1.7741,-1.7726,-1.7727,-1.7738,-1.7736,-1.7751,-1.7752,-1.7754,-1.7781,-1.7786,-1.78,-1.7776,-1.7849,-1.7851,-1.7853,-1.7866,-1.7869,-1.7872,0,0,0,0,0,-1.766,-1.7684,-1.7682,-1.7688,-1.7719,-1.7742,-1.7746,-1.7748,-1.7739,-1.7751,-1.7757,-1.7752,-1.7796,-1.7784,-1.7789,-1.7804,-1.7848,-1.785,-1.7852,-1.7865,-1.7869,-1.7872,0,0,0,0,0,0,-1.767,-1.7686,-1.7684,-1.7714,-1.7727,-1.7741,-1.7755,-1.7753,-1.7768,-1.7766,-1.7768,-1.7771,-1.7796,-1.7803,-1.7789,-1.7833,-1.782,-1.7824,-1.7828,-1.7832,-1.7835,-1.7832,-1.7778,0,0,0,0,0,-1.7676,-1.7694,-1.7707,-1.7733,-1.7739,-1.7746,-1.7756,-1.7757,-1.777,-1.7775,-1.7783,-1.7795,-1.7812,-1.7822,-1.7838,-1.7867,-1.787,-1.788,-1.7883,-1.7886,-1.7888,-1.7903,-1.7907,-1.7861,-1.7861,-1.7861,0,0,-1.7688,-1.7699,-1.7711,-1.7735,-1.7745,-1.7763,-1.7751,-1.777,-1.7783,-1.7778,-1.7802,-1.7809,-1.7822,-1.7849,-1.7861,-1.7855,-1.7902,-1.7889,-1.789,-1.7891,-1.7905,-1.791,-1.7914,-1.7862,-1.7862,-1.7862,0,0,-1.7719,-1.773,-1.7752,-1.7762,-1.7777,-1.7782,-1.7787,-1.7801,-1.7805,-1.783,-1.7826,-1.7841,-1.787,-1.7879,-1.7887,-1.7922,-1.7917,-1.7927,-1.7943,-1.7957,-1.7961,-1.7964,-1.7975,-1.7979,-1.7929,-1.7929,-1.7929,0,-1.7732,-1.776,-1.7763,-1.7783,-1.7793,-1.779,-1.7811,-1.7821,-1.784,-1.7847,-1.784,-1.7875,-1.7884,-1.7912,-1.7921,-1.7928,-1.7933,-1.7924,-1.796,-1.7963,-1.7966,-1.7977,-1.7981,-1.793,-1.793,-1.793,-1.793,0,-1.7774,-1.7793,-1.7809,-1.7828,-1.784,-1.7861,-1.7866,-1.7878,-1.7878,-1.7883,-1.7907,-1.7918,-1.7935,-1.7942,-1.7942,-1.797,-1.7966,-1.796,-1.7947,-1.7972,-1.7981,-1.7985,-1.7932,-1.7931,-1.7931,-1.7931,0,0,-1.7812,-1.7833,-1.7838,-1.7846,-1.7863,-1.7877,-1.7897,-1.7915,-1.7924,-1.7938,-1.7953,-1.7977,-1.7972,-1.7981,-1.7982,-1.7995,-1.802,-1.7987,-1.7987,-1.7991,-1.805,-1.8053,-1.8058,-1.8017,-1.8018,-1.8019,-1.8048,0,-1.7843,-1.7879,-1.7882,-1.7914,-1.7931,-1.7928,-1.7945,-1.7957,-1.7962,-1.7976,-1.7982,-1.7998,-1.799,-1.7996,-1.8008,-1.8014,-1.8031,-1.8012,-1.8031,-1.8031,-1.8026,-1.8063,-1.8067,-1.8094,-1.8052,-1.8053,-1.8053,0,-1.7885,-1.7899,-1.7933,-1.7946,-1.7953,-1.7969,-1.7985,-1.7999,-1.8012,-1.8014,-1.8025,-1.8024,-1.8043,-1.8031,-1.8057,-1.8044,-1.8052,-1.8056,-1.8057,-1.8057,-1.8043,-1.8063,-1.8103,-1.8107,-1.8059,-1.8059,-1.8058,0,-1.7907,-1.7936,-1.7959,-1.7966,-1.7983,-1.7993,-1.8001,-1.8012,-1.8022,-1.8036,-1.8042,-1.8058,-1.8066,-1.8078,-1.8081,-1.8071,-1.8106,-1.8094,-1.8108,-1.8107,-1.8114,-1.8113,-1.8154,-1.8121,-1.8121,-1.8121,-1.8121,0,-1.7941,-1.7961,-1.7969,-1.7983,-1.8006,-1.8009,-1.8031,-1.8037,-1.8047,-1.8062,-1.8061,-1.8074,-1.8078,-1.8092,-1.8094,-1.8115,-1.8119,-1.8121,-1.8121,-1.812,-1.812,-1.8124,-1.8122,-1.8122,-1.8122,-1.8122,-1.8122,0,-1.7969,-1.7976,-1.8001,-1.8014,-1.8018,-1.8034,-1.8045,-1.8058,-1.8063,-1.8082,-1.8086,-1.8094,-1.811,-1.8114,-1.8134,-1.8135,-1.8159,-1.8158,-1.8155,-1.8154,-1.8167,-1.8165,-1.8212,-1.8217,-1.8182,-1.8182,-1.8183,0,-1.799,-1.8006,-1.8021,-1.8031,-1.8039,-1.8055,-1.8065,-1.8069,-1.8079,-1.8094,-1.8105,-1.8122,-1.8135,-1.8161,-1.8167,-1.8182,-1.818,-1.8196,-1.8182,-1.8181,-1.8179,-1.8177,-1.8178,-1.8198,-1.8198,-1.8198,-1.8198,0,-1.8026,-1.8028,-1.8043,-1.8059,-1.8071,-1.8084,-1.8096,-1.8104,-1.8109,-1.8121,-1.8138,-1.8148,-1.8168,-1.8184,-1.8198,-1.8205,-1.8202,-1.8203,-1.8206,-1.8205,-1.8202,-1.8202,-1.816,-1.8201,-1.8201,-1.8201,-1.8201,-1.8201,-1.805,-1.8063,-1.8076,-1.8092,-1.8102,-1.8113,-1.8126,-1.8132,-1.8147,-1.8163,-1.8165,-1.8183,-1.8194,-1.8213,-1.8221,-1.8234,-1.8229,-1.8235,-1.8236,-1.8237,-1.8238,-1.8201,-1.8237,-1.8237,-1.8237,-1.8237,-1.8237,0,-1.8084,-1.8092,-1.8107,-1.8124,-1.8137,-1.8135,-1.8148,-1.8158,-1.8174,-1.8185,-1.8198,-1.8217,-1.8232,-1.824,-1.8254,-1.8263,-1.8262,-1.8267,-1.8265,-1.8267,-1.8242,-1.8236,-1.8267,-1.8267,-1.8267,-1.8267,-1.8267,-1.8267,-1.8103,-1.8125,-1.8129,-1.8155,-1.8162,-1.818,-1.8188,-1.8198,-1.8206,-1.8227,-1.824,-1.8245,-1.8255,-1.827,-1.8283,-1.8285,-1.829,-1.8295,-1.8296,-1.8272,-1.8269,-1.8266,-1.8261,-1.8296,-1.8296,-1.832,-1.832,-1.832]},{"header":{"parameterUnit":"m.s-1","parameterCategory":1,"la1":30.2991,"la2":30.254,"lo1":-89.0895,"lo2":-89.0444,"dy":0.0017,"dx":0.0017,"nx":28,"ny":28,"refTime":"2023-03-30T21:00:00:Z","depth":0,"parameterNumber":3,"parameterNumberName":"V-component_of_WINDS"},"data":[0,0,0,0,0,0,0,0,0,0,0,0,0,0,0,0,0,0,0,0,0,0,0,0,0,0,0,0,0,0,0,0,0,0,0,0,0,0,0,0,0,0,0,0,0,0,0,0,0,0,0,0,0,0,0,0,0,0,5.2911,5.2912,0,5.3023,5.3024,5.3025,5.3038,5.3037,5.3035,5.3034,5.3143,5.3147,5.3151,0,0,0,0,0,0,0,0,0,0,0,0,0,5.2705,5.2709,5.2911,5.2912,5.2914,5.3022,5.3024,5.3025,5.3038,5.3036,5.3035,5.3034,5.3142,5.3146,5.3151,0,0,0,0,0,0,0,0,0,0,0,0,0,5.2803,5.271,5.2911,5.2933,5.2936,5.3022,5.3024,5.3026,5.3038,5.3036,5.3035,5.3033,5.314,5.3146,5.3152,5.3221,0,0,5.3169,5.3172,0,0,0,0,0,0,0,0,5.2798,5.2811,5.2928,5.2932,5.2935,5.3015,5.2991,5.3091,5.3039,5.2999,5.3034,5.3032,5.3101,5.311,5.3134,5.3226,5.3231,5.317,5.3174,5.3176,5.3178,0,0,0,0,0,0,0,5.2791,5.2806,5.2955,5.293,5.2934,5.2937,5.2949,5.301,5.3058,5.3003,5.3004,5.3017,5.3103,5.3129,5.3137,5.3232,5.317,5.3175,5.3179,5.3181,5.3389,5.3391,0,0,0,0,0,0,5.2781,5.28,5.2951,5.2958,5.2861,5.2942,5.2955,5.2991,5.3057,5.3066,5.3018,5.3017,5.312,5.313,5.3141,5.3229,5.3176,5.3182,5.3185,5.3387,5.3389,5.3392,0,0,0,0,0,0,5.2776,5.2794,5.2947,5.288,5.2899,5.2947,5.2987,5.2994,5.302,5.3069,5.3077,5.3037,5.3119,5.3133,5.3202,5.3233,5.3184,5.319,5.3385,5.3388,5.3391,5.3404,0,0,0,0,0,0,5.277,5.2792,5.282,5.288,5.2903,5.3007,5.2989,5.2997,5.3031,5.303,5.3089,5.3097,5.3118,5.3193,5.3208,5.324,5.3194,5.3382,5.3386,5.339,5.3401,5.3407,5.3412,0,0,0,0,0,5.2763,5.2817,5.2821,5.2839,5.2939,5.3009,5.3022,5.3047,5.3033,5.3061,5.3093,5.3095,5.3227,5.32,5.3217,5.3251,5.338,5.3385,5.3389,5.3398,5.3405,5.3412,0,0,0,0,0,0,5.2755,5.2825,5.283,5.2906,5.2952,5.3011,5.3046,5.3054,5.3103,5.31,5.3128,5.3141,5.321,5.3237,5.3206,5.3323,5.3302,5.331,5.3303,5.331,5.3316,5.3308,5.3199,0,0,0,0,0,5.2763,5.2816,5.2873,5.2934,5.2957,5.2998,5.303,5.3046,5.3094,5.3112,5.3149,5.3194,5.3246,5.328,5.333,5.3404,5.3418,5.3436,5.3442,5.3446,5.3453,5.3497,5.3506,5.3406,5.3406,5.3406,0,0,5.2779,5.2823,5.2854,5.2934,5.2972,5.3025,5.3014,5.307,5.311,5.312,5.3189,5.3218,5.327,5.3343,5.3377,5.3368,5.3484,5.3452,5.3455,5.346,5.3503,5.3512,5.352,5.341,5.3409,5.3409,0,0,5.2835,5.2873,5.293,5.2969,5.3027,5.3054,5.3068,5.3127,5.3147,5.3217,5.3227,5.3274,5.3362,5.34,5.343,5.3504,5.3508,5.352,5.3549,5.3592,5.3599,5.3607,5.3635,5.3644,5.3526,5.3526,5.3526,0,5.2846,5.2929,5.2958,5.3015,5.3051,5.3065,5.3123,5.3158,5.3229,5.3252,5.3242,5.3355,5.3391,5.3474,5.3493,5.3516,5.3533,5.3513,5.3596,5.3604,5.3611,5.3638,5.3648,5.3527,5.3527,5.3527,5.3527,0,5.2941,5.2998,5.3037,5.3108,5.3148,5.3205,5.3242,5.3278,5.3292,5.332,5.3392,5.3436,5.3497,5.3518,5.353,5.3604,5.3597,5.3591,5.357,5.3621,5.3647,5.3658,5.3529,5.3529,5.3528,5.3528,0,0,5.2994,5.3084,5.3097,5.3131,5.3198,5.3242,5.33,5.3362,5.3394,5.3442,5.3492,5.3568,5.3564,5.3599,5.3616,5.3653,5.3711,5.3643,5.3644,5.3655,5.3798,5.3803,5.3814,5.3714,5.3716,5.3718,5.3794,0,5.3059,5.3166,5.3195,5.3285,5.3339,5.3355,5.3406,5.3452,5.348,5.3529,5.356,5.3614,5.3604,5.3625,5.3663,5.3696,5.3741,5.3691,5.3761,5.3763,5.3749,5.3828,5.3833,5.3902,5.3804,5.3806,5.3807,0,5.3149,5.3203,5.3299,5.3362,5.3386,5.3431,5.3492,5.3539,5.3592,5.361,5.3651,5.3665,5.3726,5.3702,5.3787,5.3753,5.3784,5.3804,5.3808,5.3816,5.3789,5.3839,5.3925,5.3936,5.3823,5.3822,5.3821,0,5.3181,5.3277,5.3348,5.3376,5.345,5.3482,5.3514,5.3566,5.3602,5.3655,5.3679,5.3737,5.3769,5.3813,5.3842,5.3822,5.3926,5.3904,5.3943,5.3942,5.3964,5.3962,5.4057,5.3981,5.3981,5.3981,5.3981,0,5.3251,5.331,5.3364,5.3408,5.3474,5.3507,5.3571,5.3604,5.365,5.37,5.3716,5.3762,5.3798,5.3849,5.3872,5.394,5.3953,5.397,5.3975,5.3969,5.3967,5.399,5.3986,5.3984,5.3983,5.3983,5.3982,0,5.3298,5.3336,5.3415,5.348,5.3498,5.3544,5.36,5.3642,5.3672,5.3736,5.3752,5.3799,5.386,5.3894,5.3969,5.3985,5.4062,5.4064,5.4045,5.4048,5.4085,5.4082,5.4199,5.4216,5.4128,5.4128,5.4129,0,5.3341,5.3387,5.3458,5.3494,5.3528,5.3584,5.3623,5.3657,5.3696,5.3762,5.3797,5.386,5.3912,5.4009,5.4049,5.4107,5.4112,5.4149,5.4121,5.4114,5.4115,5.4112,5.4118,5.4154,5.4155,5.4155,5.4156,0,5.3413,5.3431,5.3487,5.3551,5.3597,5.3648,5.3698,5.3727,5.3769,5.3812,5.3877,5.3918,5.3997,5.406,5.4122,5.4154,5.4162,5.4165,5.4177,5.4172,5.416,5.4169,5.406,5.4162,5.4161,5.4161,5.4161,5.416,5.3461,5.3504,5.3562,5.3624,5.3667,5.3714,5.3759,5.3796,5.3851,5.3921,5.3937,5.4005,5.4058,5.4144,5.4178,5.4231,5.4224,5.4241,5.4246,5.425,5.4253,5.4151,5.4242,5.4242,5.4242,5.4242,5.4242,0,5.3536,5.3575,5.3632,5.3704,5.3754,5.376,5.3817,5.3858,5.3918,5.3969,5.4021,5.4096,5.4157,5.4203,5.4266,5.43,5.4306,5.4315,5.4314,5.4321,5.4254,5.4238,5.431,5.431,5.431,5.431,5.431,5.431,5.3581,5.3655,5.368,5.3776,5.3814,5.3883,5.3915,5.3959,5.4,5.4084,5.4137,5.4167,5.4216,5.4283,5.434,5.4351,5.4374,5.4384,5.4396,5.4333,5.4326,5.4319,5.4304,5.4388,5.4388,5.4459,5.446,5.446]}]]